Location: Castifao
(42.5040°N, 9.1124°E)
Time: 14:51:29
(UTC+00:00)

Cosmos 2366 rocket - Pass Details

Date: 23 January 2020
Orbit: 956 x 996 km, 82.9° (Epoch: 22 February)

Event Time Altitude Azimuth Distance (km) Brightness Sun altitude
Rises 18:00:09 0° 186° (S) 3,638 7.2 -17.5°
Reaches altitude 10° 18:02:38 10° 187° (S) 2,700 6.5 -17.9°
Maximum altitude 18:08:50 87° 278° (W) 983 4.0 -19.0°
Drops below altitude 10° 18:15:09 10° 7° (N) 2,747 6.2 -20.2°
Sets 18:17:42 0° 8° (N) 3,705 6.9 -20.6°
